Tracking 34719 objects as of 12-Jul-2026
HD Live streaming from Space Station
objects crossing your sky now

STARLINK-3743

Track STARLINK-3743 now!
10-day predictions
STARLINK-3743 is classified as:


NORAD ID: 52118
Int'l Code: 2022-029AG
Perigee: 469.2 km
Apogee: 470.8 km
Inclination: 53.2 °
Period: 93.9 minutes
Semi major axis: 6840 km
RCS: Unknown
Launch date: March 19, 2022
Source: United States (US)
Launch site: AIR FORCE EASTERN TEST RANGE (AFETR)
Your satellite tracking list
Your tracking list is empty




NASA's NSSDC Master Catalog

Two Line Element Set (TLE):
1 52118U 22029AG  26193.58335648  .00064560  00000-0  19087-2 0  9993
2 52118  53.1591 236.2158 0001121  77.8495 139.1645 15.34347128  5546
Source of the keplerian elements: AFSPC